sat.trackr.live / text

‹ back to catalog

STARLINK-30773

NORAD 58161 · 2023-166M

PAYLOAD ACTIVE UNKNOWN

§ Identity

Operator
Country
US
Launch date
2023-10-29
Launch site
AFWTR
Launch vehicle
Mass (kg)
RCS (m²)

Purposes: comms

External: N2YO · Heavens-Above · Gunter

§ Orbital elements

Epoch: 2026-09-20T23:05:44.106720Z

Period
93.85 min
Inclination
53.1597°
Eccentricity
0.0001206
Mean motion
15.34381591 rev/d
Perigee alt
461.9 km
Apogee alt
463.6 km
Semi-major
6,840.9 km
B*
-7.4354e-6
RAAN
31.3559°
Arg perigee
103.4471°
Mean anomaly
256.6666°
Rev number
16,309

§ Raw data

STARLINK-307731 58161U 23166M   26263.96231605 -.00000627  00000+0 -74354-5 0  99942 58161  53.1597  31.3559 0001206 103.4471 256.6666 15.34381591163094

JSON: /api/v1/satellites/58161 · /tle

For live sub-satellite position, see the globe view (requires WebGL).

§ Visibility from observer

Set your observer location to see the next 7 days of passes ≥ 10°. The values pass through the URL so the page stays shareable.

No JS? Fill the form by hand. The geolocation button needs JavaScript.